Weather History for Kabul, Afghanistan

Change the Weather History Date:

Friday, February 15, 2013

  Actual Average Record
Temperature  
Mean Temperature 42 °F -  
Max Temperature 51 °F 48 °F - ()
Min Temperature 32 °F 28 °F - ()
Degree Days  
Heating Degree Days 24    
Moisture  
Dew Point 29 °F    
Average Humidity 66    
Maximum Humidity 100    
Minimum Humidity 30    
Precipitation  
Precipitation 0.00 in 0.08 in - ()
Sea Level Pressure  
Sea Level Pressure 30.02 in    
Wind  
Wind Speed 3 mph ()    
Max Wind Speed 8 mph    
Max Gust Speed -    
Visibility 3.1 miles    
Events      
T = Trace of Precipitation, MM = Missing Value Source: Averaged Metar Reports

Daily Weather History Graph

Daily Weather History Graph

Search for Another Location

Airport:

Trip Planner

Search our weather history database for the weather conditions in past years. The results will help you decide how hot, cold, wet, or windy it might be!

Date:

Astronomy

Feb. 15, 2013 Rise Set
Actual Time 6:38 AM AFT 5:36 PM AFT
Civil Twilight 6:12 AM AFT 6:02 PM AFT
Nautical Twilight 5:43 AM AFT 6:31 PM AFT
Astronomical Twilight 5:14 AM AFT 7:00 PM AFT
Moon 9:15 AM AFT (2/15) 10:55 PM AFT (2/15)
Length of Visible Light 11h 49m
Length of Day
10h 57m
Waxing Crescent, 26% of the Moon is Illuminated
Feb 15
Waxing Crescent
Feb 18
First Quarter
Feb 26
Full
Mar 5
Last Quarter
Mar 12
New

Hourly Weather History & Observations

Time (AFT) Temp. Windchill Dew Point Humidity Pressure Visibility Wind Dir Wind Speed Gust Speed Precip Events Conditions
12:20 AM 32.0 °F - 32.0 °F 100% 30.09 in 1.9 mi ESE 2.3 mph - N/A   Haze
1:20 AM 32.0 °F 28.7 °F 32.0 °F 100% 30.06 in 1.9 mi SE 3.5 mph - N/A   Haze
2:20 AM 33.8 °F - 32.0 °F 93% 30.06 in 1.9 mi Variable 2.3 mph - N/A   Haze
3:20 AM 32.0 °F 28.7 °F 32.0 °F 100% 30.04 in 1.9 mi NW 3.5 mph - N/A   Haze
4:20 AM 33.8 °F 28.6 °F 32.0 °F 93% 30.04 in 2.5 mi ENE 5.8 mph - N/A   Haze
5:20 AM 32.0 °F 28.7 °F 30.2 °F 93% 30.04 in 2.5 mi WNW 3.5 mph - N/A   Haze
6:20 AM 32.0 °F 28.7 °F 32.0 °F 100% 30.04 in 2.5 mi North 3.5 mph - N/A   Haze
6:32 AM 32.0 °F - 32.0 °F 100% 30.04 in 1.9 mi WNW 2.3 mph - N/A   Haze
7:20 AM 32.0 °F 28.7 °F 32.0 °F 100% 30.04 in 0.7 mi SW 3.5 mph - N/A   Smoke
8:20 AM 37.4 °F 33.8 °F 32.0 °F 81% 30.06 in 1.0 mi SSE 4.6 mph - N/A   Smoke
9:20 AM 42.8 °F - 32.0 °F 66% 30.06 in 1.7 mi West 2.3 mph - N/A   Haze
9:48 AM 44.6 °F - 32.0 °F 61% 30.06 in 2.5 mi Variable 1.2 mph - N/A   Haze
10:20 AM 46.4 °F - 32.0 °F 57% 30.06 in 2.5 mi ESE 2.3 mph - N/A   Haze
11:20 AM 50.0 °F - 30.2 °F 47% 30.04 in 1.9 mi West 2.3 mph - N/A   Haze
11:52 AM 50.0 °F - 30.2 °F 47% 30.04 in 1.4 mi SE 2.3 mph - N/A   Haze
12:20 PM 50.0 °F - 32.0 °F 50% 30.04 in 1.5 mi SW 5.8 mph - N/A   Haze
1:20 PM 51.8 °F - 24.8 °F 35% 30.04 in 3.7 mi ESE 3.5 mph - N/A   Partly Cloudy
1:55 PM 51.8 °F - 21.2 °F 30% 30.04 in 4.3 mi NW 6.9 mph - N/A   Haze
2:20 PM 51.8 °F - 23.0 °F 33% 30.04 in 5.0 mi North 6.9 mph - N/A   Haze
3:20 PM 51.8 °F - 24.8 °F 35% 29.95 in 5.6 mi NNE 8.1 mph - N/A   Partly Cloudy
4:20 PM 50.0 °F - 24.8 °F 37% 29.92 in 5.6 mi North 5.8 mph - N/A   Partly Cloudy
5:20 PM 48.2 °F - 24.8 °F 40% 29.92 in 5.6 mi North 4.6 mph - N/A   Partly Cloudy
6:20 PM 46.4 °F 44.3 °F 24.8 °F 43% 29.95 in 5.0 mi North 4.6 mph - N/A   Partly Cloudy
7:20 PM 42.8 °F - 26.6 °F 53% 29.95 in 4.3 mi West 2.3 mph - N/A   Unknown
8:20 PM 41.0 °F 39.0 °F 28.4 °F 61% 29.98 in 3.7 mi West 3.5 mph - N/A   Unknown
9:20 PM 39.2 °F 35.0 °F 28.4 °F 65% 29.98 in 4.3 mi NE 5.8 mph - N/A   Unknown
10:20 PM 37.4 °F 33.8 °F 28.4 °F 70% 29.98 in 4.3 mi NNW 4.6 mph - N/A   Unknown
11:20 PM 37.4 °F 32.1 °F 28.4 °F 70% 29.98 in 4.3 mi SSE 6.9 mph - N/A   Unknown